Regional Weather Roundup
Issued by NWS

Home | Current Version | Previous Version | Text Only | Print | Product List | Glossary On
Versions: 1 2 3 4 5 6 7 8 9 10 11 12 13 14 15 16 17 18 19 20 21 22 23 24 25 26 27 28 29 30 31 32 33 34 35 36 37 38 39 40 41 42 43 44 45 46 47 48 49 50
000
ASUS43 KBIS 211710
RWRND

NORTH DAKOTA REGIONAL WEATHER ROUNDUP
NATIONAL WEATHER SERVICE BISMARCK ND
1200 PM CDT FRI JUL 21 2017

NOTE: "FAIR" INDICATES FEW OR NO CLOUDS BELOW 12,000 FEET WITH NO
SIGNIFICANT WEATHER AND/OR OBSTRUCTIONS TO VISIBILITY.


NDZ001>003-009>011-017-211800-
NORTHWEST NORTH DAKOTA

CITY           SKY/WX    TMP DP  RH WIND       PRES   REMARKS
WILLISTON      MOSUNNY   82  60  47 SW7       29.81R
MINOT          TSTM      71  64  78 SE6       29.78R
MINOT AFB      CLOUDY    66  64  94 SW6G35    29.79R
$$

NDZ018>021-031>035-040>046-211800-
SOUTHWEST NORTH DAKOTA

CITY           SKY/WX    TMP DP  RH WIND       PRES   REMARKS
BISMARCK       MOSUNNY   82  65  56 CALM      29.84F
DICKINSON      SUNNY     82  64  54 VRB5      29.83S
GARRISON         N/A     82  64  54 VRB6      29.80F
HETTINGER ARPT MOSUNNY   83  63  50 VRB3      29.87S
$$

NDZ004>008-012>016-024-026-027-054-211800-
NORTHEAST NORTH DAKOTA

CITY           SKY/WX    TMP DP  RH WIND       PRES   REMARKS
GRAND FORKS    PTSUNNY   83  73  72 S7        29.78S
GRND FRKS AFB  MOSUNNY   83  73  70 S3        29.79S
DEVILS LAKE    PTSUNNY   82  67  60 SW9       29.81R
$$

NDZ022-023-025-028>030-036>039-047>053-211800-
SOUTHEAST NORTH DAKOTA

CITY           SKY/WX    TMP DP  RH WIND       PRES   REMARKS
FARGO          CLOUDY    85  72  65 W6        29.77F HX  91
JAMESTOWN      MOSUNNY   85  66  53 N6        29.81F
$$





USA.gov is the U.S. government's official web portal to all federal, state and local government web resources and services.